GFSFLT2_850_temp_120.txt.gz
Temp
8 8 9 9 9 9 9 9 8 8 8 8 8 8 7 7 7 7 5 4 3 4 3 4 3 4 5
7 7 8 8 8 8 8 8 8 8 8 7 7 7 6 6 6 6 5 4 3 3 3 3 3 5 5
6 6 7 7 7 7 8 7 7 7 7 7 6 6 5 6 6 4 4 3 2 2 2 3 3 5 5
5 5 5 5 6 6 6 7 7 6 5 6 6 5 5 5 5 5 3 3 2 2 2 2 4 5 5
4 5 5 6 6 6 5 6 6 6 5 5 5 4 5 5 5 5 4 2 2 2 2 2 4 5 5
2 3 4 4 4 5 4 4 4 5 4 4 4 5 4 4 4 5 3 2 2 2 1 2 5 4 3
1 2 2 2 3 3 3 3 4 4 4 4 4 4 4 3 3 3 2 2 1 2 1 2 4 4 3
0 1 1 1 2 2 2 3 2 3 3 3 4 4 3 3 2 1 1 1 0 1 1 1 3 3 2
-1 -0 0 0 1 1 1 2 2 2 2 1 1 2 2 1 1 0 0 -0 0 2 0 1 2 3 3
-1 -1 -1 -1 -0 1 1 1 1 1 1 1 0 1 -0 0 0 -0 -0 -0 0 1 -0 1 2 2 3
-3 -2 -1 -0 -0 -0 0 -0 1 1 1 0 -0 -0 -0 -0 -1 -1 -1 -1 0 0 0 0 2 2 2
-3 -2 -2 -1 -1 -1 -0 -0 -1 -1 -0 -1 -1 -0 -1 -1 -2 -1 -1 -2 -0 0 0 -0 1 2 2
-3 -3 -2 -2 -1 -1 -1 -1 -1 -1 -1 -1 -1 -1 -2 -1 -2 0 -2 -1 -1 -0 0 -0 0 1 2
-4 -3 -2 -2 -2 -2 -2 -2 -2 -2 -2 -2 -3 -2 -2 -2 -2 -1 -1 -1 -1 -0 -1 -1 -0 1 1
-4 -4 -3 -3 -3 -2 -2 -3 -3 -3 -3 -2 -3 -3 -3 -3 -3 -2 -1 -1 -1 -1 -1 -1 -0 0 1
-5 -5 -4 -3 -3 -3 -3 -3 -4 -4 -3 -3 -3 -3 -3 -4 -3 -2 -2 -2 -1 -1 -1 -1 -1 -0 -0
-7 -6 -4 -4 -3 -3 -3 -4 -4 -4 -4 -4 -4 -4 -4 -4 -4 -3 -3 -2 -1 -1 -1 -1 -1 -1 -1

GFSFLT2_850_temp_126.txt.gz
Temp
8 8 8 8 8 8 8 8 8 8 8 8 9 9 9 8 8 8 8 8 8 7 6 6 6 6 6
7 7 7 7 7 7 7 7 7 7 7 7 7 6 6 6 7 7 7 7 7 6 6 6 5 5 5
5 5 4 5 5 5 5 5 5 5 6 6 6 6 5 5 6 6 6 6 6 5 5 5 5 5 4
5 4 3 2 1 1 1 2 2 2 2 3 4 5 4 4 4 5 5 5 5 5 5 4 4 4 4
2 -1 -1 -1 -1 -1 -0 -0 -0 1 1 2 2 3 4 4 4 4 4 4 4 4 4 3 3 4 3
0 -1 -2 -2 -1 -2 -2 -2 -2 -1 -0 0 0 1 3 3 3 3 3 3 4 4 3 2 2 3 3
-1 -0 -2 -1 -2 -2 -2 -2 -2 -1 -1 -1 -0 0 1 1 1 2 2 2 3 3 2 2 2 2 2
0 -1 -1 -1 -2 -3 -3 -2 -2 -2 -1 -1 -0 0 1 1 1 1 1 1 2 2 1 1 0 0 0
-1 -2 -3 -4 -4 -4 -3 -3 -3 -2 -2 -2 -1 -1 -0 0 1 0 1 0 0 1 -0 -0 -0 -0 0
0 -1 -2 -3 -4 -4 -4 -3 -3 -3 -2 -2 -1 -1 -1 -0 -0 0 -0 -1 -1 -1 -1 -1 -1 -0 -1
-2 -1 -2 -4 -4 -4 -4 -3 -3 -3 -2 -2 -2 -2 -2 -1 -1 -1 -1 -2 -2 -2 -2 -2 -1 -2 -1
-5 -5 -5 -4 -4 -4 -4 -3 -3 -2 -2 -2 -3 -2 -2 -2 -2 -2 -2 -2 -3 -3 -3 -3 -2 -1 -1
-7 -7 -7 -6 -4 -4 -3 -3 -2 -2 -2 -3 -3 -3 -3 -3 -3 -3 -3 -3 -4 -4 -3 -3 -2 -2 -2
-8 -8 -7 -7 -5 -4 -4 -3 -2 -3 -3 -4 -4 -4 -4 -4 -4 -4 -3 -4 -4 -4 -4 -3 -2 -2 -1
-8 -8 -8 -7 -7 -5 -5 -4 -4 -3 -3 -4 -4 -4 -4 -5 -4 -4 -4 -3 -4 -5 -5 -4 -3 -2 -2
-9 -9 -8 -8 -7 -7 -5 -5 -4 -4 -3 -4 -4 -5 -5 -5 -4 -5 -5 -5 -4 -5 -5 -5 -3 -3 -2
-9 -9 -8 -7 -7 -7 -6 -5 -4 -5 -4 -5 -5 -5 -6 -5 -5 -5 -5 -5 -5 -6 -5 -4 -2 -2 -2

GFSFLT2_850_temp_129.txt.gz
Temp
9 9 9 9 8 8 8 8 8 8 8 8 8 8 8 8 8 8 7 7 8 8 8 8 8 7 6
8 8 7 8 8 8 9 8 7 7 7 7 7 6 6 6 6 6 5 6 6 7 7 7 7 6 6
7 7 7 7 6 6 5 6 5 5 5 6 5 4 4 4 4 4 5 5 5 6 6 6 6 6 6
5 6 5 6 4 3 4 3 2 3 4 3 3 2 2 2 3 3 3 4 4 5 5 5 5 6 5
4 3 3 3 1 1 0 1 1 1 1 1 1 1 1 1 2 2 2 3 4 4 4 4 4 5 4
3 2 2 1 0 -0 -1 -2 -3 -1 -2 -2 -1 -0 1 1 1 1 1 1 2 3 3 3 3 4 4
2 0 0 0 -2 -2 -3 -3 -4 -3 -3 -3 -2 -1 -1 -0 -0 0 1 1 2 2 2 2 2 2 2
-0 0 -1 -3 -4 -4 -4 -4 -4 -3 -3 -3 -2 -1 -2 -1 0 -0 1 0 1 1 1 2 2 2 1
-0 -1 -2 -2 -4 -4 -4 -4 -4 -4 -2 -3 -2 -2 -2 -1 -1 -1 -1 -1 -1 0 1 1 1 1 1
-2 -2 -2 -3 -5 -5 -5 -5 -4 -4 -3 -3 -3 -3 -3 -2 -1 -2 -2 -2 -1 0 0 -0 -1 -1 -0
-2 -2 -2 -3 -3 -4 -4 -5 -4 -4 -3 -4 -3 -3 -3 -3 -2 -2 -2 -2 -2 -1 -1 -1 -2 -2 -2
-3 -4 -4 -4 -3 -4 -4 -4 -4 -4 -3 -3 -4 -3 -3 -3 -3 -3 -3 -3 -3 -3 -3 -3 -3 -2 -2
-7 -8 -7 -7 -7 -5 -4 -4 -3 -3 -3 -3 -4 -4 -4 -4 -4 -3 -4 -3 -4 -4 -3 -3 -3 -3 -5
-9 -9 -9 -9 -8 -8 -6 -5 -4 -3 -4 -4 -4 -4 -4 -4 -4 -4 -4 -5 -4 -5 -4 -4 -4 -3 -2
-8 -8 -9 -9 -8 -8 -7 -7 -6 -5 -4 -4 -4 -5 -5 -5 -4 -4 -5 -5 -5 -5 -5 -4 -3 -3 -2
-7 -8 -8 -8 -8 -8 -7 -7 -6 -6 -5 -5 -5 -6 -5 -5 -5 -5 -5 -5 -5 -5 -5 -4 -4 -4 -3
-8 -9 -9 -8 -8 -7 -7 -7 -7 -6 -6 -6 -6 -6 -6 -6 -5 -5 -6 -6 -6 -6 -6 -4 -4 -3 -2

GFSFLT2_850_temp_135.txt.gz
Temp
9 8 7 8 8 8 8 7 8 7 7 7 8 7 7 7 7 6 6 6 5 6 6 6 6 6 7
7 7 6 6 7 7 6 5 7 6 6 6 6 6 6 5 5 5 5 3 3 3 4 4 5 5 6
7 6 5 5 5 5 5 5 5 5 5 5 4 4 4 4 3 2 2 2 2 2 2 2 3 4 4
5 5 5 4 4 5 5 5 5 5 4 4 3 3 3 2 1 1 1 0 1 1 1 1 2 2 3
4 3 3 3 2 2 3 3 4 4 3 4 4 4 3 3 2 0 -0 -0 0 1 1 1 1 2 2
2 2 1 1 0 0 -0 -1 -0 2 0 3 1 2 1 1 -0 -1 -1 -1 -1 -1 -0 0 1 1 1
1 -0 -1 -2 -2 -1 -2 -5 -5 -1 -4 -4 0 1 1 0 -1 -1 -2 -2 -2 -2 -2 -1 -0 -0 1
-1 -1 -1 -1 -2 -3 -4 -5 -5 -3 -5 -6 -4 -3 -1 -1 -1 -1 -2 -2 -2 -3 -3 0 1 1 1
-1 -1 -1 -1 -2 -3 -3 -5 -6 -5 -3 -5 -5 -5 -3 -1 -2 -2 -2 -4 -2 -2 -2 -1 0 1 1
-1 -1 -1 -2 -3 -4 -6 -8 -8 -7 -6 -6 -6 -5 -6 -3 -3 -2 -2 -3 -3 -3 -3 -2 -1 -1 0
-1 -2 -2 -2 -3 -4 -6 -8 -8 -8 -7 -6 -6 -5 -6 -6 -3 -3 -4 -3 -3 -3 -2 -3 -3 -2 -2
-2 -2 -2 -3 -4 -5 -5 -7 -8 -8 -7 -7 -6 -6 -6 -6 -6 -3 -3 -3 -4 -4 -3 -3 -4 -3 -3
-3 -3 -4 -4 -5 -6 -6 -7 -7 -8 -7 -6 -6 -6 -6 -6 -6 -5 -5 -3 -4 -4 -4 -3 -3 -4 -3
-3 -4 -4 -4 -4 -5 -5 -5 -6 -6 -7 -7 -7 -7 -6 -5 -6 -5 -5 -6 -4 -4 -4 -4 -4 -4 -4
-4 -4 -5 -5 -5 -6 -6 -7 -7 -7 -6 -6 -6 -7 -6 -6 -5 -5 -5 -5 -5 -5 -4 -4 -4 -3 -4
-5 -6 -6 -6 -6 -6 -7 -7 -7 -7 -7 -7 -7 -6 -6 -5 -5 -5 -6 -6 -5 -5 -5 -5 -4 -4 -4
-6 -6 -7 -7 -7 -7 -8 -8 -7 -7 -7 -7 -7 -7 -7 -7 -6 -6 -6 -6 -6 -6 -6 -5 -4 -4 -4

GFSFLT2_850_temp_138.txt.gz
Temp
8 8 7 7 7 6 6 7 7 7 7 8 6 7 8 8 8 7 7 7 7 7 6 6 5 6 6
6 6 6 6 6 6 6 7 5 5 6 6 6 6 5 6 6 4 4 4 4 4 4 4 4 4 4
4 4 5 6 5 4 4 4 5 5 4 5 5 4 4 4 3 3 3 3 2 2 2 2 2 2 2
3 3 4 4 3 4 5 5 5 4 4 4 4 3 3 3 3 2 2 1 1 1 0 0 1 1 1
3 4 3 3 3 3 3 4 4 4 4 3 3 4 3 2 1 0 0 -0 -1 -2 -1 -1 0 1 1
3 2 2 1 1 1 2 3 4 2 1 4 2 3 2 2 0 0 0 -1 -2 -3 -3 -2 -0 2 2
2 1 1 1 1 1 0 -0 -0 1 -2 1 1 1 1 1 -0 -0 -1 -3 -3 -2 -1 -2 -0 1 2
0 0 -0 -1 -1 -2 -3 -3 -2 -1 -3 -4 -1 -1 1 0 -1 -1 -3 -2 -2 -2 -2 -2 -2 -1 1
-0 -0 -1 -1 -2 -2 -3 -3 -2 -1 -3 -6 -6 -5 -2 -0 -2 -3 -3 -2 -2 -3 -3 -3 -3 -3 -2
-1 -1 -1 -2 -2 -3 -4 -4 -6 -6 -5 -7 -7 -7 -7 -2 -3 -3 -3 -3 -2 -3 -3 -3 -2 -3 -2
-1 -1 -2 -2 -2 -3 -4 -5 -6 -7 -6 -8 -7 -7 -7 -7 -4 -3 -4 -3 -3 -3 -3 -3 -3 -4 -4
-2 -2 -2 -2 -3 -3 -4 -5 -6 -6 -7 -8 -7 -7 -7 -7 -6 -3 -3 -3 -3 -3 -4 -3 -4 -4 -4
-2 -3 -3 -3 -4 -5 -5 -5 -6 -6 -6 -7 -7 -7 -7 -7 -7 -6 -5 -4 -4 -5 -4 -4 -4 -4 -3
-3 -3 -3 -4 -5 -5 -5 -5 -5 -5 -6 -7 -7 -7 -7 -6 -7 -6 -6 -7 -5 -5 -5 -4 -5 -5 -4
-4 -4 -4 -4 -5 -6 -6 -6 -6 -6 -6 -6 -7 -7 -7 -7 -6 -6 -5 -5 -6 -6 -5 -4 -4 -4 -4
-5 -5 -5 -6 -6 -6 -7 -7 -7 -7 -7 -7 -7 -7 -6 -5 -6 -6 -6 -6 -6 -5 -6 -6 -4 -4 -4
-6 -6 -7 -7 -7 -7 -7 -8 -7 -7 -7 -7 -8 -8 -8 -7 -7 -6 -7 -6 -6 -5 -6 -6 -5 -4 -4

GFSFLT2_850_temp_141.txt.gz
Temp
7 8 7 7 7 6 6 6 6 6 6 7 7 7 8 8 8 8 8 7 7 7 7 7 6 5 6
7 6 6 5 5 5 5 5 5 6 6 6 5 8 7 6 6 6 5 6 5 6 5 5 6 5 5
5 4 3 3 3 4 5 5 5 5 5 5 5 5 5 5 5 4 4 5 4 4 3 2 2 2 2
4 3 3 3 4 4 4 4 4 4 4 4 4 3 3 3 3 3 3 2 1 1 0 -1 -1 -0 1
3 3 3 2 3 3 4 4 4 3 3 3 3 3 3 3 2 1 1 1 0 -2 -2 -2 -1 1 1
2 3 2 2 2 2 3 3 2 1 2 4 3 3 2 2 1 1 1 -0 -3 -3 -3 -2 -1 -0 0
2 1 1 1 1 1 1 1 1 0 0 3 2 2 1 1 -0 -0 -1 -3 -3 -3 -2 -1 -1 -0 -2
1 1 1 0 0 -0 -1 -0 1 -0 -2 -0 1 0 1 0 -0 -1 -2 -3 -3 -2 -2 -2 -1 -1 -2
0 0 -0 -1 -1 -1 -2 -2 -0 -0 -3 -4 -2 -1 0 0 -2 -3 -3 -3 -3 -3 -2 -2 -2 -2 -1
-1 -1 -2 -2 -2 -2 -3 -3 -4 -3 -4 -6 -5 -7 -7 -1 -1 -2 -3 -3 -3 -3 -3 -2 -3 -3 -2
-2 -2 -2 -2 -3 -3 -3 -4 -5 -4 -4 -7 -7 -7 -8 -7 -3 -3 -4 -4 -4 -3 -3 -3 -3 -4 -3
-3 -3 -3 -3 -3 -3 -4 -4 -5 -5 -5 -6 -8 -8 -8 -8 -8 -4 -4 -4 -4 -4 -4 -3 -3 -3 -3
-3 -3 -3 -3 -4 -4 -5 -5 -5 -6 -6 -7 -7 -7 -7 -8 -7 -6 -6 -5 -4 -4 -4 -3 -3 -3 -2
-4 -4 -4 -5 -5 -5 -5 -5 -5 -5 -6 -7 -7 -7 -7 -7 -7 -6 -6 -7 -5 -5 -5 -4 -4 -5 -4
-4 -4 -4 -5 -5 -6 -6 -5 -6 -6 -5 -6 -7 -7 -7 -7 -6 -6 -6 -6 -6 -6 -5 -4 -4 -5 -4
-4 -5 -5 -5 -6 -6 -6 -6 -7 -7 -7 -7 -7 -6 -6 -5 -6 -6 -7 -7 -7 -6 -6 -6 -4 -4 -5
-5 -5 -6 -6 -6 -6 -7 -7 -7 -7 -7 -8 -8 -8 -8 -8 -7 -7 -8 -7 -7 -6 -6 -6 -6 -4 -4

GFSFLT2_850_temp_144.txt.gz
Temp
8 8 8 7 7 7 6 6 6 6 6 6 6 7 7 6 6 6 6 7 7 7 8 8 7 7 7
7 7 6 6 6 5 5 5 5 5 6 6 6 6 6 7 5 5 5 5 6 6 6 6 6 6 6
6 6 6 5 5 5 5 5 5 5 5 5 5 5 5 5 4 4 4 5 5 5 5 5 4 4 3
5 4 4 4 4 4 4 4 4 4 4 3 2 3 3 3 3 4 4 3 3 3 2 1 1 1 2
3 3 3 3 3 3 3 3 3 3 4 3 3 3 3 3 2 2 2 1 1 0 -2 -2 -2 -0 -0
2 2 2 2 2 2 1 1 1 2 2 3 3 2 2 2 1 1 1 -0 -2 -3 -3 -3 -2 -2 -0
1 1 1 1 1 1 1 0 -1 0 1 2 1 1 1 0 1 1 -0 -2 -3 -3 -2 -1 -1 -1 -0
1 1 1 1 0 0 0 0 -0 -1 -1 0 -1 -0 -0 -0 -0 -1 -3 -3 -2 -2 -2 -2 -1 -1 -0
1 0 -0 0 -0 -1 -1 -1 -1 -4 -4 -3 -3 -2 -1 -1 -3 -4 -3 -3 -3 -3 -2 -2 -2 -2 -1
-1 -1 -1 -1 -1 -1 -2 -2 -2 -3 -5 -4 -4 -5 -4 -1 -1 -2 -3 -3 -3 -3 -3 -3 -3 -3 -2
-2 -2 -2 -2 -2 -2 -2 -2 -3 -3 -4 -6 -4 -5 -8 -7 -1 -2 -4 -4 -4 -4 -3 -3 -4 -4 -3
-2 -2 -2 -2 -2 -3 -3 -3 -4 -4 -5 -6 -5 -5 -7 -8 -8 -3 -4 -4 -5 -4 -4 -4 -3 -3 -3
-2 -3 -3 -3 -3 -4 -4 -4 -5 -5 -5 -6 -6 -7 -7 -7 -7 -6 -6 -5 -5 -5 -5 -4 -4 -4 -3
-3 -3 -4 -4 -4 -4 -4 -4 -4 -5 -6 -7 -7 -7 -6 -6 -7 -6 -6 -7 -6 -6 -6 -5 -4 -4 -5
-4 -4 -4 -5 -5 -6 -5 -5 -5 -6 -5 -6 -7 -7 -6 -6 -7 -6 -7 -7 -6 -6 -6 -5 -4 -5 -5
-5 -5 -5 -6 -6 -6 -6 -6 -6 -7 -7 -7 -7 -6 -6 -6 -6 -7 -7 -7 -7 -6 -6 -7 -4 -4 -4
-5 -5 -5 -6 -7 -6 -7 -7 -7 -7 -7 -7 -8 -8 -8 -9 -7 -7 -8 -7 -7 -6 -7 -7 -7 -5 -5

GFSFLT2_850_temp_147.txt.gz
Temp
8 8 8 8 7 7 6 6 6 7 6 6 6 7 7 7 7 7 6 7 7 7 6 6 7 6 6
7 7 7 7 7 5 6 6 6 6 6 6 6 6 6 6 6 6 5 6 5 6 5 5 5 5 5
6 6 6 5 5 5 5 5 5 5 5 6 5 5 5 5 5 5 4 4 4 4 4 4 4 4 2
5 5 5 4 4 5 5 4 4 5 5 5 4 4 4 3 4 4 3 3 3 3 2 1 1 1 2
5 4 4 4 4 4 4 4 4 3 3 3 3 2 2 2 2 3 2 2 1 1 0 1 1 0 0
3 3 3 3 3 2 2 3 2 1 2 3 2 2 2 2 2 2 2 2 0 -1 -2 -1 -1 -2 -1
2 2 2 2 2 1 1 1 1 1 2 2 2 2 1 1 1 1 1 -1 -3 -3 -2 -2 -2 -2 -1
2 2 2 1 1 1 0 1 0 0 0 1 0 1 0 0 0 -0 -1 -3 -3 -3 -2 -2 -2 -2 -1
1 1 1 1 0 0 -0 -1 -1 -2 -2 -2 -2 -0 0 -0 -2 -2 -3 -3 -3 -3 -3 -2 -2 -2 -2
1 0 0 0 -0 -1 -1 -2 -3 -3 -3 -4 -3 -4 -2 -1 -2 -3 -3 -3 -4 -4 -3 -3 -3 -3 -3
-1 -1 -1 -1 -1 -2 -2 -2 -3 -3 -4 -4 -3 -4 -7 -7 -2 -2 -4 -5 -4 -4 -4 -4 -4 -4 -4
-2 -2 -2 -2 -2 -2 -3 -3 -3 -3 -3 -5 -4 -5 -6 -6 -5 -3 -3 -4 -5 -4 -5 -5 -4 -4 -4
-2 -2 -2 -2 -3 -3 -3 -3 -3 -4 -4 -5 -5 -6 -6 -6 -7 -6 -7 -5 -6 -6 -5 -5 -4 -4 -4
-3 -3 -2 -3 -3 -3 -3 -4 -3 -4 -4 -5 -6 -6 -6 -6 -7 -6 -6 -8 -6 -7 -6 -6 -5 -5 -5
-3 -3 -3 -3 -4 -4 -4 -4 -4 -4 -5 -6 -6 -7 -6 -7 -6 -6 -7 -8 -7 -8 -7 -6 -5 -5 -5
-3 -3 -3 -4 -4 -5 -5 -5 -5 -5 -6 -6 -6 -6 -6 -5 -6 -7 -7 -8 -7 -7 -7 -8 -6 -4 -5
-3 -4 -4 -5 -6 -6 -6 -6 -6 -6 -7 -7 -7 -8 -10 -10 -6 -7 -8 -7 -7 -7 -8 -8 -8 -5 -5

GFSFLT2_850_temp_150.txt.gz
Temp
8 8 8 8 7 7 6 5 5 6 7 7 6 6 6 7 7 7 7 6 6 6 6 5 6 6 6
7 7 7 7 6 6 5 5 5 5 6 6 5 5 6 6 6 6 5 5 5 5 5 5 5 5 5
6 6 6 5 5 4 4 4 4 5 5 5 5 5 5 5 5 5 5 4 4 4 5 4 5 4 1
5 5 5 4 4 5 4 4 4 4 5 4 4 4 4 4 4 4 4 4 3 2 2 3 2 1 0
5 5 4 4 4 4 4 3 4 4 4 3 4 3 3 3 3 3 3 3 2 2 1 1 0 -0 -1
4 4 3 3 3 3 3 4 3 3 4 3 3 3 3 2 2 1 2 1 0 -0 -0 -1 -2 -2 -1
3 3 3 2 2 2 2 2 2 3 3 3 3 2 1 1 1 1 -0 -1 -2 -2 -3 -2 -2 -2 -2
2 2 2 2 2 2 2 1 1 2 2 1 1 1 1 1 1 -0 -2 -2 -3 -3 -3 -3 -2 -2 -2
2 2 1 1 1 1 1 1 1 1 1 0 0 1 1 0 -1 -1 -3 -3 -3 -3 -3 -3 -3 -4 -3
2 1 1 1 0 0 0 0 -0 -0 -1 -2 -1 -2 -1 -1 -1 -2 -3 -4 -4 -4 -3 -4 -3 -4 -3
1 1 1 0 -0 -1 -1 -1 -2 -2 -3 -4 -3 -4 -5 -3 -1 -2 -3 -4 -4 -3 -4 -4 -4 -5 -5
-0 -0 -0 -0 -1 -2 -2 -2 -2 -3 -3 -4 -4 -5 -5 -5 -4 -3 -3 -4 -4 -4 -4 -5 -4 -4 -4
-1 -1 -1 -1 -2 -2 -2 -3 -3 -4 -4 -4 -4 -4 -5 -6 -7 -5 -5 -3 -4 -6 -6 -6 -5 -5 -4
-1 -1 -1 -1 -2 -2 -2 -3 -3 -4 -4 -4 -4 -4 -5 -6 -7 -5 -6 -7 -5 -6 -8 -7 -5 -6 -5
-1 -1 -1 -2 -2 -2 -3 -3 -3 -4 -4 -4 -5 -5 -5 -7 -6 -6 -7 -6 -7 -7 -7 -6 -4 -5 -6
-2 -2 -2 -3 -3 -3 -4 -4 -4 -4 -5 -5 -5 -5 -5 -5 -7 -7 -7 -7 -8 -7 -7 -8 -5 -4 -5
-3 -3 -3 -3 -4 -4 -5 -5 -5 -5 -5 -6 -6 -8 -10 -10 -7 -7 -8 -7 -7 -7 -8 -8 -8 -5 -5

GFSFLT2_850_temp_156.txt.gz
Temp
6 7 6 6 6 6 6 6 6 6 6 6 6 6 6 6 6 6 6 7 7 7 7 6 6 6 6
5 5 5 6 6 6 6 6 6 6 6 6 6 6 6 5 5 5 5 5 5 6 5 6 6 6 5
4 4 4 5 5 5 4 4 4 5 6 6 5 5 5 5 5 5 5 5 5 5 5 5 5 5 5
4 4 4 4 4 4 4 4 4 5 5 5 4 4 4 4 4 4 4 4 4 4 4 4 4 4 4
4 4 4 4 4 4 4 4 4 3 3 3 3 4 4 4 3 3 3 3 3 3 2 2 1 1 1
4 4 4 4 4 3 3 3 3 3 3 3 3 3 3 2 2 3 2 2 2 1 1 1 1 0 -0
4 4 3 3 3 3 3 3 3 3 3 2 2 1 2 2 2 1 1 -0 -0 -0 -1 -1 -1 -1 -1
3 3 3 3 2 2 2 2 2 2 2 2 1 1 1 1 1 -0 -1 -1 -1 -2 -2 -2 -2 -2 -1
3 3 2 2 2 2 1 1 1 1 1 1 1 1 1 0 -1 -1 -1 -2 -2 -2 -2 -2 -2 -2 -2
2 2 2 2 2 1 1 1 0 1 1 -0 0 -0 -0 -1 -1 -1 -2 -3 -2 -2 -2 -3 -3 -4 -3
1 1 1 1 1 0 0 0 -0 0 0 -0 -1 -1 -1 -1 -1 -2 -2 -2 -3 -3 -4 -4 -4 -5 -5
0 0 0 0 -0 -0 -0 -1 -1 -1 -1 -1 -1 -2 -2 -2 -2 -2 -3 -3 -3 -4 -4 -4 -5 -5 -5
1 0 -0 -1 -1 -1 -1 -1 -1 -1 -2 -2 -3 -3 -3 -3 -4 -3 -4 -3 -4 -4 -4 -4 -4 -4 -3
-0 -1 -2 -1 -1 -2 -2 -2 -2 -2 -2 -3 -3 -4 -4 -4 -4 -3 -5 -6 -5 -6 -5 -4 -4 -4 -4
-1 -2 -2 -2 -2 -2 -3 -2 -3 -3 -3 -4 -4 -5 -4 -4 -4 -4 -5 -5 -6 -6 -5 -4 -4 -4 -4
-2 -2 -3 -3 -3 -3 -3 -3 -3 -4 -4 -4 -5 -5 -5 -5 -5 -5 -6 -6 -6 -6 -6 -6 -3 -3 -4
-2 -3 -3 -3 -4 -3 -4 -3 -4 -4 -5 -5 -5 -5 -5 -5 -5 -6 -7 -7 -6 -6 -7 -7 -6 -3 -4

GFSFLT2_850_temp_159.txt.gz
Temp
5 5 5 5 6 5 5 6 7 6 7 7 7 7 7 7 7 7 7 7 7 7 6 6 6 6 6
4 4 4 5 5 5 5 5 5 6 6 6 7 7 7 7 6 6 6 6 6 6 6 6 6 6 6
3 3 3 3 4 4 4 4 4 5 5 6 6 6 6 5 5 5 5 5 5 5 5 5 5 5 5
5 4 2 3 3 4 4 4 5 5 4 4 4 4 5 5 5 5 4 4 4 4 4 4 4 4 4
4 4 4 4 4 4 4 4 4 4 4 4 4 4 4 4 4 4 4 4 4 3 3 2 2 3 3
4 4 4 4 4 4 3 3 3 3 3 3 3 3 2 2 3 3 3 2 2 2 1 1 1 1 1
3 3 3 3 3 3 3 3 3 3 2 3 2 2 2 2 2 2 2 1 0 0 0 -0 -1 -1 -1
3 3 2 2 2 2 2 2 2 2 2 2 2 2 2 1 2 1 -0 -0 0 -0 -1 -2 -1 -1 -1
2 2 2 2 2 2 2 1 1 2 2 1 1 1 1 1 1 -0 -1 -1 -1 -1 -2 -2 -2 -2 -1
2 2 2 1 1 1 1 1 1 1 1 1 1 0 0 0 -0 -0 -1 -2 -2 -2 -2 -2 -3 -2 -2
1 1 1 1 0 0 -0 -0 -0 -0 -0 -0 -0 -0 -1 -1 -1 -1 -2 -2 -2 -2 -2 -3 -3 -3 -3
1 1 0 0 -0 -1 -1 -1 -1 -1 -1 -1 -1 -1 -1 -1 -2 -2 -2 -3 -2 -2 -3 -4 -3 -4 -4
1 0 -0 -1 -1 -1 -1 -2 -1 -1 -1 -2 -2 -2 -2 -2 -3 -2 -2 -2 -2 -3 -3 -3 -3 -3 -2
0 -0 -2 -1 -1 -2 -2 -2 -2 -2 -2 -2 -3 -3 -3 -3 -4 -3 -4 -4 -4 -4 -4 -4 -3 -3 -4
-1 -2 -2 -2 -2 -2 -3 -3 -3 -2 -3 -3 -4 -4 -4 -4 -3 -4 -4 -4 -5 -5 -5 -4 -3 -3 -4
-2 -3 -3 -3 -3 -4 -4 -3 -3 -4 -4 -4 -4 -4 -4 -4 -4 -4 -4 -5 -6 -5 -5 -5 -3 -3 -4
-3 -3 -4 -5 -5 -5 -5 -4 -4 -4 -4 -4 -5 -5 -5 -5 -5 -4 -5 -5 -5 -5 -5 -5 -4 -2 -4

GFSFLT2_850_temp_165.txt.gz
Temp
5 5 4 4 4 4 4 4 5 6 6 6 6 7 7 6 6 6 6 6 6 7 7 7 7 7 8
4 5 5 4 4 4 3 4 4 4 4 5 6 6 6 6 6 6 6 6 6 6 6 6 6 6 6
4 5 5 5 5 4 4 3 3 4 4 4 5 5 5 5 5 6 6 5 6 5 5 5 5 5 5
4 5 5 5 5 5 4 4 4 4 4 4 4 4 5 4 4 4 4 4 4 4 5 5 5 5 5
4 4 5 4 4 4 4 4 4 4 4 4 4 4 4 4 4 4 4 4 4 4 4 4 4 4 4
4 4 5 4 4 4 4 4 3 4 4 4 3 3 3 3 3 3 4 4 3 3 3 2 2 2 2
4 4 4 3 3 4 4 3 3 3 3 4 3 3 3 3 3 3 3 3 2 2 2 2 2 2 2
4 3 3 3 3 2 2 2 2 2 2 2 3 3 3 2 2 3 2 2 1 1 1 1 1 1 1
3 3 3 2 2 2 2 1 2 2 2 1 2 2 2 2 2 2 1 1 1 0 -0 -0 0 0 0
2 2 2 2 1 1 1 1 0 0 1 1 1 1 1 1 1 1 1 0 -0 -0 -1 -1 -1 -0 -1
1 1 1 1 1 1 0 -0 -0 -0 -0 -0 0 0 -0 -0 0 -0 -0 -1 -1 -1 -1 -1 -1 -2 -1
0 0 0 1 1 -0 -1 -1 -1 -1 -1 -1 -2 -1 -1 -1 -1 -1 -1 -1 -1 -1 -2 -1 -2 -2 -2
0 -0 -0 -1 -1 -2 -2 -2 -2 -2 -2 -2 -2 -2 -3 -2 -3 -2 -2 -2 -2 -2 -2 -2 -2 -2 -1
-1 -1 -1 -2 -2 -2 -2 -2 -3 -3 -2 -3 -3 -3 -3 -3 -3 -2 -3 -3 -2 -3 -2 -2 -2 -3 -3
-2 -2 -3 -3 -3 -4 -3 -3 -4 -3 -3 -4 -3 -3 -4 -3 -3 -4 -4 -3 -3 -3 -2 -3 -2 -3 -3
-2 -2 -3 -4 -4 -4 -4 -4 -5 -5 -5 -5 -4 -4 -4 -4 -4 -4 -4 -4 -4 -3 -4 -4 -2 -3 -4
-3 -3 -3 -3 -4 -4 -4 -5 -5 -5 -5 -5 -4 -4 -5 -4 -5 -5 -5 -5 -4 -4 -4 -4 -3 -3 -4

GFSFLT2_850_temp_168.txt.gz
Temp
4 4 5 5 4 4 5 4 4 5 5 5 6 6 6 7 7 7 7 7 7 7 7 7 7 7 7
4 5 6 5 5 4 4 4 4 4 4 5 5 6 6 6 6 6 7 7 6 6 6 7 7 6 6
5 5 5 5 5 5 5 4 4 4 4 4 5 5 5 5 5 5 5 5 5 6 5 5 5 6 6
5 5 5 5 5 5 4 5 4 4 4 4 4 5 5 5 5 5 5 5 5 5 5 5 5 4 4
5 5 5 5 5 4 4 4 4 4 4 4 4 4 4 4 4 4 4 4 4 4 4 4 4 4 4
4 4 5 4 4 4 4 3 2 4 4 3 3 3 3 3 3 3 3 3 3 3 3 3 3 3 2
3 4 4 4 4 3 3 3 2 2 2 2 3 3 3 3 3 3 3 3 2 2 2 2 2 2 2
3 3 3 3 3 2 2 2 2 2 2 2 2 3 3 3 3 3 3 2 2 2 1 1 1 1 1
3 3 2 2 2 1 2 2 1 1 2 1 2 2 2 2 2 2 2 2 2 1 1 0 0 1 1
2 2 2 1 1 1 1 1 0 -0 1 1 1 1 1 1 1 1 1 1 1 1 1 0 -0 -0 -0
1 1 1 1 1 1 1 0 0 -0 -0 -1 -0 0 -0 -0 0 0 0 0 -0 -0 -0 -1 -1 -1 -1
-0 0 0 0 1 0 0 -0 -1 -1 -1 -1 -2 -1 -1 -1 -1 -0 -0 -0 -1 -1 -1 -1 -1 -1 -2
-0 -0 -0 -1 -1 -1 -1 -1 -1 -1 -1 -2 -2 -3 -3 -2 -2 -2 -2 -1 -2 -2 -2 -2 -2 -2 -1
-1 -1 -1 -1 -2 -2 -2 -2 -3 -2 -2 -2 -3 -3 -3 -3 -3 -3 -3 -3 -2 -2 -3 -2 -2 -2 -2
-2 -2 -2 -2 -3 -2 -3 -3 -3 -4 -3 -3 -3 -4 -4 -4 -4 -3 -3 -2 -3 -3 -4 -3 -2 -2 -2
-2 -2 -3 -3 -3 -3 -3 -4 -4 -4 -4 -4 -4 -5 -5 -4 -3 -3 -3 -3 -3 -4 -5 -4 -3 -2 -2
-2 -3 -3 -3 -3 -3 -3 -4 -4 -5 -5 -5 -5 -5 -5 -6 -4 -4 -4 -4 -5 -6 -6 -5 -4 -2 -3

GFSFLT2_850_temp_174.txt.gz
Temp
6 5 5 6 6 6 6 5 5 5 5 5 5 5 6 6 6 7 7 7 7 7 8 8 8 8 8
6 6 5 5 5 5 5 5 5 5 5 4 5 5 5 6 6 6 7 7 7 7 7 7 7 7 7
5 5 5 5 5 5 5 5 5 5 5 5 5 5 5 5 5 5 6 6 6 6 6 6 6 6 6
4 5 5 5 4 5 5 5 5 5 5 5 5 5 5 5 5 5 5 5 5 5 5 5 6 6 6
3 4 4 4 4 4 5 4 4 5 5 4 5 4 4 4 4 4 4 4 4 4 4 4 4 4 4
3 3 4 3 3 3 3 3 4 4 4 4 4 4 4 4 4 3 3 4 4 3 3 3 3 4 3
3 3 3 3 2 2 2 2 2 2 2 4 4 3 3 3 3 3 3 3 3 3 3 3 3 3 3
2 3 2 2 1 1 1 1 1 2 2 2 3 3 3 3 3 2 2 2 2 2 2 2 2 2 2
2 2 2 2 1 1 1 0 1 1 1 0 2 2 2 2 2 2 2 1 2 1 1 1 1 1 1
2 1 1 1 0 1 0 -0 -0 -1 1 0 1 1 1 2 2 1 1 1 0 0 0 0 0 0 0
1 1 1 0 0 0 0 -0 -0 -0 -1 -1 -1 -0 -1 -0 0 0 0 0 0 -0 -0 -0 -0 -0 0
-1 -0 -1 -1 -1 -1 -1 -1 -1 -1 -2 -2 -2 -1 -1 -1 -1 -1 -1 -1 -1 -1 -1 -1 -1 -1 -1
-2 -1 -1 -1 -1 -2 -2 -2 -2 -2 -2 -2 -2 -2 -2 -2 -2 -2 -2 -2 -2 -2 -1 -2 -2 -2 -1
-2 -3 -2 -2 -2 -2 -2 -2 -3 -3 -3 -3 -3 -3 -2 -3 -3 -3 -2 -3 -2 -2 -2 -2 -2 -2 -2
-3 -3 -3 -3 -3 -2 -3 -3 -3 -3 -3 -3 -4 -4 -4 -4 -4 -4 -3 -3 -3 -3 -3 -2 -2 -2 -3
-3 -2 -2 -3 -3 -3 -3 -4 -4 -4 -4 -3 -4 -4 -4 -4 -4 -4 -4 -3 -3 -3 -3 -3 -3 -2 -3
-3 -3 -3 -3 -3 -4 -4 -4 -4 -4 -4 -4 -4 -4 -5 -5 -4 -4 -5 -4 -4 -4 -4 -5 -4 -3 -4

GFSFLT2_850_temp_177.txt.gz
Temp
4 5 5 5 5 5 5 5 5 6 6 6 6 5 5 5 6 6 6 6 7 7 8 8 8 8 8
5 5 5 5 5 5 5 5 5 5 6 5 5 5 5 5 5 6 6 6 6 6 6 6 7 7 7
4 4 5 5 5 5 5 5 5 5 5 5 5 5 5 5 5 5 5 5 5 5 5 5 5 6 6
3 3 3 4 4 4 5 5 5 5 5 5 5 5 5 5 5 5 4 5 5 5 5 5 5 5 5
3 3 3 3 3 3 4 4 4 4 5 5 5 5 5 5 4 4 4 4 4 4 4 4 4 5 5
2 2 3 3 3 2 2 3 3 3 4 4 4 4 4 4 4 4 4 4 4 3 3 3 3 3 4
2 3 3 3 2 2 2 2 2 2 2 4 3 4 3 4 4 3 3 3 3 3 3 3 3 3 3
2 2 2 2 2 2 1 1 1 2 1 2 3 3 3 3 3 3 3 3 3 3 2 2 2 2 2
2 2 1 1 1 1 1 -0 -0 1 1 -0 2 2 2 2 2 2 2 2 2 2 2 1 1 1 1
2 1 1 1 -0 -0 -0 -0 -1 -1 1 -0 1 0 1 2 2 2 1 1 1 1 1 1 1 1 0
0 0 0 -0 -1 -1 -1 -1 -1 -1 -2 -2 -1 -1 -1 -0 0 0 0 -0 -0 -0 -0 -0 -0 -0 0
-1 -1 -1 -2 -2 -2 -2 -2 -2 -2 -2 -2 -3 -2 -2 -2 -2 -1 -1 -1 -1 -1 -1 -1 -1 -1 -1
-2 -2 -2 -2 -2 -2 -1 -1 -2 -2 -2 -2 -2 -3 -3 -3 -3 -2 -2 -2 -2 -2 -2 -2 -2 -2 -2
-2 -2 -2 -3 -3 -3 -3 -2 -2 -2 -2 -3 -3 -3 -3 -3 -3 -3 -3 -4 -3 -3 -3 -3 -3 -2 -2
-2 -2 -2 -2 -2 -3 -3 -3 -3 -3 -3 -3 -3 -4 -4 -4 -4 -3 -3 -4 -4 -4 -3 -2 -3 -3 -3
-3 -3 -3 -3 -3 -2 -3 -3 -3 -4 -4 -4 -4 -4 -4 -4 -4 -4 -4 -4 -4 -4 -4 -4 -3 -3 -4
-4 -4 -4 -4 -3 -4 -3 -4 -4 -4 -4 -4 -4 -5 -5 -5 -4 -4 -4 -5 -5 -5 -5 -5 -5 -4 -5

GFSFLT2_850_temp_180.txt.gz
Temp
3 4 4 4 5 5 5 6 6 6 6 6 6 6 6 5 5 6 6 6 6 6 7 7 7 8 7
3 3 4 4 4 4 5 5 6 5 6 6 6 6 5 5 5 5 6 6 6 6 6 6 6 7 7
3 3 3 3 3 3 4 4 5 5 6 6 5 5 5 5 5 5 5 5 5 5 5 5 5 5 6
3 3 3 3 3 3 3 3 4 4 5 5 5 5 5 5 5 5 5 5 5 5 5 5 4 5 5
2 2 3 3 3 2 2 3 4 4 5 5 5 5 5 5 5 4 4 4 4 4 4 4 4 4 4
2 2 3 3 2 2 1 1 2 3 3 4 4 4 4 4 4 4 4 4 4 3 3 3 4 4 4
1 2 2 2 1 2 2 1 1 1 1 3 3 4 3 4 4 3 3 3 3 3 3 3 3 3 3
1 2 2 1 1 1 2 1 1 1 0 0 2 2 2 3 3 3 3 2 2 3 3 2 2 2 2
2 2 2 1 1 1 1 0 1 1 0 -0 1 1 2 2 2 2 2 2 2 2 2 2 1 1 1
1 1 1 1 0 0 -0 -0 -1 -2 1 -0 1 0 0 1 2 2 1 1 1 1 1 1 1 1 0
0 0 0 0 -1 -1 -1 -1 -1 -2 -1 -2 -2 -1 -1 -0 0 0 0 0 0 0 -0 -0 -0 -0 -0
-1 -1 -1 -1 -2 -2 -2 -2 -2 -2 -2 -2 -2 -2 -2 -2 -2 -1 -1 -1 -1 -1 -1 -1 -1 -1 -1
-2 -2 -2 -2 -3 -2 -2 -2 -2 -2 -2 -2 -2 -3 -3 -3 -3 -2 -2 -2 -2 -2 -2 -2 -2 -2 -2
-2 -2 -2 -2 -2 -3 -3 -3 -3 -3 -2 -2 -3 -3 -3 -3 -4 -3 -3 -3 -3 -3 -3 -3 -3 -2 -2
-4 -4 -3 -3 -2 -3 -2 -3 -3 -3 -3 -3 -3 -4 -4 -4 -4 -3 -3 -4 -3 -4 -4 -4 -3 -3 -3
-4 -4 -4 -4 -3 -3 -3 -3 -3 -3 -3 -3 -4 -4 -4 -4 -4 -3 -4 -4 -4 -4 -5 -4 -3 -3 -4
-4 -4 -5 -5 -5 -4 -4 -4 -4 -4 -4 -4 -4 -5 -5 -4 -4 -4 -4 -4 -5 -4 -5 -5 -4 -4 -4

GFSFLT2_850_temp_183.txt.gz
Temp
3 4 4 4 4 4 4 4 5 5 5 5 6 6 6 6 6 6 6 6 6 6 7 7 8 8 7
3 3 3 4 4 4 4 5 5 5 5 5 5 5 5 6 5 5 6 5 5 6 6 6 6 7 7
3 3 3 3 4 4 4 4 4 5 5 5 5 5 5 5 5 5 5 5 5 5 5 5 5 6 6
2 3 3 3 3 3 3 3 4 4 4 5 5 5 5 5 5 5 5 5 5 5 4 4 5 5 5
2 2 2 2 2 2 2 2 3 3 4 4 5 5 4 4 4 4 4 4 4 4 4 4 4 4 4
1 1 1 1 2 2 2 2 2 3 3 3 3 4 4 4 4 4 4 4 3 3 3 3 3 3 3
1 2 2 2 1 1 2 2 2 2 2 3 3 3 3 3 4 4 4 4 3 3 3 3 2 3 3
1 1 1 1 1 1 1 1 1 1 1 2 3 3 2 3 3 3 4 3 3 3 3 2 2 2 2
0 1 1 1 0 -0 0 0 0 1 0 -0 2 2 2 2 2 2 3 3 2 2 3 2 2 2 2
-0 -0 0 0 -0 0 -1 -1 -1 -1 -0 -1 0 -0 1 1 2 1 1 1 1 1 1 1 1 1 1
-1 -1 -0 -1 -1 -1 -1 -1 -1 -2 -2 -2 -2 -1 -2 -0 -0 -0 -0 -0 0 0 -0 0 0 -0 0
-2 -2 -2 -2 -2 -2 -2 -2 -2 -2 -2 -2 -2 -2 -2 -2 -2 -1 -1 -1 -1 -1 -1 -1 -1 -1 -1
-3 -2 -3 -3 -2 -3 -3 -3 -2 -2 -2 -2 -2 -2 -3 -3 -3 -2 -2 -2 -2 -2 -2 -2 -2 -2 -1
-3 -3 -3 -3 -3 -3 -3 -3 -3 -3 -3 -3 -2 -2 -3 -3 -3 -3 -3 -3 -2 -2 -3 -2 -2 -2 -2
-4 -4 -4 -4 -4 -4 -3 -3 -3 -3 -3 -3 -3 -3 -3 -4 -4 -3 -3 -3 -3 -4 -3 -3 -3 -3 -3
-4 -5 -4 -5 -5 -5 -4 -4 -4 -4 -4 -4 -4 -4 -4 -3 -4 -3 -3 -3 -4 -4 -4 -4 -3 -3 -4
-5 -5 -5 -5 -5 -5 -5 -5 -5 -4 -4 -4 -4 -4 -4 -4 -4 -4 -4 -4 -4 -4 -4 -4 -4 -4 -4

GFSFLT2_850_temp_186.txt.gz
Temp
4 4 4 4 4 4 4 4 4 4 5 6 6 6 6 6 6 6 6 6 6 6 7 7 7 8 7
4 3 4 3 3 3 4 4 4 4 4 5 6 6 6 7 6 6 6 6 6 6 6 6 7 7 7
3 3 3 3 3 3 3 4 4 4 4 4 4 5 6 6 6 7 6 6 6 6 6 6 6 6 6
2 3 2 2 2 2 3 3 3 3 4 4 4 4 5 5 5 6 6 6 6 5 5 5 6 5 5
1 2 2 1 1 1 1 2 3 3 3 3 4 4 5 5 4 5 5 5 6 5 5 5 5 5 5
0 1 1 1 1 0 1 1 1 3 2 3 3 4 3 4 4 4 4 4 4 5 5 4 4 4 4
-0 0 0 1 1 0 0 1 0 0 0 1 2 2 2 3 3 3 4 4 3 3 4 4 4 4 4
-0 -0 -0 -0 -0 -0 -0 -0 -0 0 -0 0 2 2 2 2 2 2 2 2 3 3 3 2 3 3 3
-1 -1 -1 -1 -1 -1 0 -1 -1 -0 -0 -1 1 1 1 1 1 2 2 2 2 1 2 2 2 2 2
-1 -1 -1 -1 -1 -1 -1 -2 -1 -2 -1 -1 -1 -1 0 1 1 1 1 1 1 1 1 1 1 2 2
-2 -2 -2 -2 -2 -2 -1 -1 -2 -2 -2 -2 -2 -2 -2 -2 -1 0 0 0 -0 -0 -0 -0 0 1 1
-3 -3 -3 -3 -2 -2 -2 -2 -2 -2 -2 -2 -2 -2 -2 -2 -2 -2 -1 -1 -1 -1 -1 -1 -1 -1 -1
-4 -4 -3 -3 -3 -3 -3 -2 -3 -3 -3 -2 -2 -2 -2 -2 -3 -2 -2 -2 -2 -2 -2 -2 -2 -2 -2
-5 -4 -4 -3 -3 -4 -3 -3 -3 -3 -3 -3 -3 -3 -3 -3 -3 -3 -3 -3 -2 -3 -3 -2 -2 -2 -2
-5 -5 -5 -4 -4 -4 -4 -4 -4 -4 -3 -3 -3 -3 -3 -3 -3 -3 -3 -3 -3 -3 -4 -3 -3 -3 -3
-6 -5 -5 -5 -5 -5 -5 -5 -5 -4 -4 -4 -4 -4 -4 -4 -3 -3 -3 -3 -3 -4 -4 -3 -3 -3 -3
-7 -6 -5 -5 -5 -5 -5 -5 -5 -5 -4 -4 -4 -4 -5 -4 -4 -4 -4 -4 -4 -4 -4 -4 -3 -3 -3

GFSFLT2_850_temp_189.txt.gz
Temp
5 4 4 4 4 3 3 3 3 4 4 4 5 6 6 6 6 6 6 6 6 7 7 7 8 8 8
4 4 4 5 4 3 3 3 3 3 4 4 4 5 5 6 6 5 6 5 6 6 7 7 7 7 8
2 4 4 4 4 3 3 3 3 3 3 3 4 4 5 5 6 6 5 5 5 5 6 6 7 7 7
2 2 3 3 2 1 1 2 2 2 2 3 3 3 4 4 5 5 5 5 5 5 5 5 5 6 6
1 1 1 1 1 1 1 0 0 2 3 2 2 3 3 4 4 4 4 5 5 4 4 4 4 4 5
-0 -0 -1 -0 -0 -0 -0 -0 0 0 1 2 2 2 3 3 3 3 4 4 4 4 4 4 4 4 3
-1 -1 -1 -0 -0 -1 -1 -1 -0 -0 -0 -0 1 2 2 2 2 2 3 3 3 3 3 3 3 3 3
-1 -1 -1 -1 -1 -1 -1 -1 -1 -1 -1 -1 0 1 1 1 2 2 2 2 3 3 3 3 3 3 3
-2 -2 -2 -2 -2 -2 -1 -2 -1 -1 -1 -1 -1 -0 0 1 1 1 1 2 2 2 2 2 2 2 2
-3 -2 -3 -2 -2 -2 -2 -2 -2 -2 -1 -2 -1 -1 -1 0 1 1 1 1 1 1 1 1 2 2 2
-3 -4 -4 -3 -3 -3 -2 -2 -2 -2 -2 -2 -2 -1 -2 -1 -1 -1 0 0 -0 -0 -0 -0 0 1 1
-4 -4 -4 -4 -4 -3 -3 -2 -2 -2 -2 -2 -2 -2 -2 -2 -2 -2 -2 -1 -1 -1 -1 -1 -2 -1 0
-3 -4 -5 -5 -5 -4 -3 -3 -3 -3 -2 -2 -2 -2 -2 -2 -2 -2 -2 -2 -2 -2 -2 -1 -1 -1 -1
-5 -5 -5 -5 -5 -4 -4 -4 -4 -3 -3 -3 -3 -3 -3 -3 -3 -3 -3 -3 -3 -3 -3 -2 -2 -2 -2
-6 -6 -6 -6 -5 -5 -5 -4 -5 -4 -4 -4 -4 -4 -3 -3 -3 -3 -3 -3 -3 -3 -3 -3 -3 -3 -3
-7 -7 -7 -6 -6 -5 -5 -5 -5 -5 -5 -4 -4 -4 -4 -4 -4 -3 -3 -3 -3 -4 -4 -4 -3 -3 -3
-7 -7 -7 -7 -6 -6 -5 -5 -5 -5 -5 -5 -5 -4 -4 -5 -4 -4 -4 -4 -4 -4 -4 -4 -4 -4 -4

GFSFLT2_850_temp_192.txt.gz
Temp
3 5 3 3 3 2 3 3 2 3 4 4 4 4 5 5 5 6 6 6 7 6 6 6 6 7 7
1 3 3 3 2 2 3 2 4 4 3 3 3 4 4 4 5 5 5 6 6 6 6 6 6 6 6
0 0 3 2 1 3 3 2 1 3 3 3 3 3 3 4 4 5 5 5 5 5 6 6 6 6 6
-0 -1 0 2 1 0 1 1 1 1 1 2 3 3 3 3 3 4 4 4 5 5 5 5 5 5 5
-1 -1 -1 -0 -1 -1 -0 -1 -0 0 -0 0 1 2 3 3 3 3 3 3 4 4 4 4 5 5 5
-2 -2 -2 -2 -1 -1 -1 -1 -1 -0 -0 -0 0 1 2 2 3 3 3 3 3 3 4 4 4 4 4
-1 -1 -1 -1 -1 -1 -1 -2 -1 -1 -1 -1 -1 -0 -0 1 2 2 2 3 3 2 3 3 3 3 3
-2 -2 -2 -2 -2 -2 -2 -2 -2 -1 -1 -1 -1 -1 -1 0 1 1 2 2 2 2 2 2 2 3 3
-3 -3 -4 -3 -2 -2 -2 -2 -2 -1 -1 -2 -2 -2 -1 -0 0 1 1 1 1 1 1 2 2 2 2
-3 -3 -4 -3 -3 -3 -3 -3 -3 -2 -2 -2 -1 -1 -1 -1 -0 0 0 0 0 1 1 0 1 1 1
-3 -3 -3 -3 -3 -4 -3 -3 -3 -3 -2 -2 -2 -2 -1 -1 -1 -1 -1 -1 -1 -0 -1 -1 -0 1 0
-4 -4 -4 -4 -3 -4 -4 -4 -3 -3 -3 -3 -3 -2 -2 -2 -2 -1 -1 -1 -1 -2 -2 -2 -3 -2 -1
-4 -4 -5 -5 -5 -4 -4 -4 -4 -4 -3 -3 -3 -3 -3 -2 -2 -2 -2 -2 -2 -2 -2 -2 -2 -3 -3
-5 -6 -6 -6 -6 -5 -4 -4 -4 -4 -4 -4 -4 -3 -3 -3 -3 -3 -3 -3 -2 -2 -3 -3 -2 -2 -2
-6 -7 -7 -6 -6 -6 -5 -5 -5 -5 -4 -4 -4 -4 -4 -4 -3 -3 -3 -3 -3 -3 -3 -4 -3 -3 -3
-7 -7 -7 -7 -7 -7 -6 -6 -5 -5 -5 -4 -5 -5 -4 -4 -4 -4 -4 -4 -4 -4 -4 -4 -4 -3 -3
-7 -7 -7 -7 -7 -7 -7 -7 -6 -6 -5 -5 -5 -5 -5 -5 -4 -4 -4 -4 -4 -4 -4 -4 -4 -4 -4